START_TIME,STEP,MOV.,M15,t_acc.,M20,t_acc.
1979-03-02 09:00:33.370 ,6,1,0.,24.0,0.,24.0
1979-03-02 09:00:57.370 ,5,1,0.,24.0,0.,24.0
1979-03-02 09:01:21.370 ,4,1,0.,24.0,0.,24.0
1979-03-02 09:01:45.370 ,3,1,0.,24.0,0.,24.0
1979-03-02 09:02:09.370 ,2,1,0.,24.0,0.,24.0
1979-03-02 09:02:33.370 ,1,1,0.,24.0,0.,24.0
1979-03-02 09:02:57.370 ,0,1,1.,24.0,0.,24.0
1979-03-02 09:03:21.370 ,0,1,0.,24.0,0.,24.0
1979-03-02 09:03:45.370 ,1,1,0.,24.0,0.,24.0
1979-03-02 09:04:09.370 ,2,1,0.,24.0,0.,24.0
1979-03-02 09:04:33.370 ,3,1,0.,24.0,0.,24.0
1979-03-02 09:04:57.370 ,4,1,1.,24.0,0.,24.0
1979-03-02 09:05:21.370 ,5,1,0.,24.0,0.,24.0
1979-03-02 09:05:45.370 ,6,1,0.,24.0,0.,24.0
1979-03-02 09:06:09.370 ,7,1,0.,24.0,0.,24.0
1979-03-02 09:06:33.370 ,7,1,0.,24.0,0.,24.0
1979-03-02 09:06:57.370 ,6,1,0.,24.0,0.,24.0
1979-03-02 09:07:21.370 ,5,1,0.,24.0,0.,24.0
1979-03-02 09:07:45.370 ,4,1,0.,24.0,0.,24.0
1979-03-02 09:08:09.370 ,3,1,0.,24.0,0.,24.0
1979-03-02 09:08:33.370 ,2,1,0.,24.0,0.,24.0
1979-03-02 09:08:57.370 ,1,1,0.,24.0,0.,24.0
1979-03-02 09:09:21.370 ,0,1,0.,24.0,0.,24.0
1979-03-02 09:09:45.370 ,0,1,0.,24.0,0.,24.0
1979-03-02 09:10:09.370 ,1,1,0.,24.0,0.,24.0
1979-03-02 09:10:33.370 ,2,1,0.,24.0,0.,24.0
1979-03-02 09:10:57.370 ,3,1,0.,24.0,0.,24.0
1979-03-02 09:11:21.370 ,4,1,0.,24.0,0.,24.0
1979-03-02 09:11:45.370 ,5,1,0.,24.0,0.,24.0
1979-03-02 09:12:09.370 ,6,1,0.,24.0,0.,24.0
1979-03-02 09:12:33.370 ,7,1,0.,24.0,0.,24.0
1979-03-02 09:12:57.370 ,7,1,0.,24.0,0.,24.0
1979-03-02 09:13:21.370 ,6,1,0.,24.0,0.,24.0
1979-03-02 09:13:45.370 ,5,1,0.,24.0,0.,24.0
1979-03-02 09:14:09.370 ,4,1,0.,24.0,0.,24.0
1979-03-02 09:14:33.370 ,3,1,0.,24.0,0.,24.0
1979-03-02 09:14:57.370 ,2,1,0.,24.0,0.,24.0
1979-03-02 09:15:21.370 ,1,1,0.,24.0,0.,24.0
1979-03-02 09:15:45.370 ,0,1,0.,24.0,0.,24.0
1979-03-02 09:16:09.370 ,0,1,0.,24.0,0.,24.0
1979-03-02 09:16:33.370 ,1,1,0.,24.0,0.,24.0
1979-03-02 09:16:57.370 ,2,1,0.,24.0,0.,24.0
1979-03-02 09:17:21.370 ,3,1,0.,24.0,0.,24.0
1979-03-02 09:17:45.370 ,4,1,0.,24.0,0.,24.0
1979-03-02 09:18:09.370 ,5,1,0.,24.0,0.,24.0
1979-03-02 09:18:33.370 ,6,1,0.,24.0,0.,24.0
1979-03-02 09:18:57.370 ,7,1,0.,24.0,0.,24.0
1979-03-02 09:19:21.370 ,7,1,0.,24.0,0.,24.0
1979-03-02 09:19:45.370 ,6,1,0.,24.0,0.,24.0
1979-03-02 09:20:09.370 ,5,1,0.,24.0,0.,24.0
1979-03-02 09:20:33.370 ,4,1,0.,24.0,0.,24.0
1979-03-02 09:20:57.370 ,3,1,0.,24.0,0.,24.0
1979-03-02 09:21:21.370 ,2,1,0.,24.0,0.,24.0
1979-03-02 09:21:45.370 ,1,1,0.,24.0,0.,24.0
1979-03-02 09:22:09.370 ,0,1,0.,24.0,0.,24.0
1979-03-02 09:22:33.370 ,0,1,0.,24.0,0.,24.0
1979-03-02 09:22:57.370 ,1,1,0.,24.0,0.,24.0
1979-03-02 09:23:21.370 ,2,1,0.,24.0,0.,24.0
1979-03-02 09:23:45.370 ,3,1,0.,24.0,0.,24.0
1979-03-02 09:24:09.370 ,4,1,0.,24.0,0.,24.0
1979-03-02 09:24:33.370 ,5,1,0.,24.0,0.,24.0
1979-03-02 09:24:57.370 ,6,1,0.,24.0,0.,24.0
1979-03-02 09:25:21.370 ,7,1,0.,24.0,0.,24.0
1979-03-02 09:25:45.370 ,7,1,0.,24.0,0.,24.0
1979-03-02 09:26:09.370 ,6,1,0.,24.0,0.,24.0
1979-03-02 09:26:33.370 ,5,1,0.,24.0,0.,24.0
1979-03-02 09:26:57.370 ,4,1,0.,24.0,0.,24.0
1979-03-02 09:27:21.370 ,3,1,0.,24.0,0.,24.0
1979-03-02 09:27:45.370 ,2,1,0.,24.0,0.,24.0
1979-03-02 09:28:09.370 ,1,1,0.,24.0,0.,24.0
1979-03-02 09:28:33.370 ,0,1,0.,24.0,0.,24.0
1979-03-02 09:28:57.370 ,0,1,0.,24.0,0.,24.0
1979-03-02 09:29:21.370 ,1,1,0.,24.0,0.,24.0
1979-03-02 09:29:45.370 ,2,1,0.,24.0,0.,24.0
1979-03-02 09:30:09.370 ,3,1,0.,24.0,0.,24.0
1979-03-02 09:30:33.370 ,4,1,0.,24.0,0.,24.0
1979-03-02 09:30:57.370 ,5,1,0.,24.0,0.,24.0
1979-03-02 09:31:21.370 ,6,1,0.,24.0,0.,24.0
1979-03-02 09:31:45.370 ,7,1,0.,24.0,0.,24.0
1979-03-02 09:32:09.370 ,7,1,0.,24.0,0.,24.0
1979-03-02 09:32:33.370 ,6,1,0.,24.0,0.,24.0
1979-03-02 09:32:57.370 ,5,1,0.,24.0,0.,24.0
1979-03-02 09:33:21.370 ,4,1,0.,24.0,0.,24.0
1979-03-02 09:33:45.370 ,3,1,0.,24.0,0.,24.0
1979-03-02 09:34:09.370 ,2,1,0.,24.0,0.,24.0
1979-03-02 09:34:33.370 ,1,1,0.,24.0,0.,24.0
1979-03-02 09:34:57.370 ,0,1,0.,24.0,0.,24.0
1979-03-02 09:35:21.370 ,0,1,0.,24.0,0.,24.0
1979-03-02 09:35:45.370 ,1,1,0.,24.0,0.,24.0
1979-03-02 09:36:09.370 ,2,1,0.,24.0,0.,24.0
1979-03-02 09:36:33.370 ,3,1,0.,24.0,0.,24.0
1979-03-02 09:36:57.370 ,4,1,0.,24.0,0.,24.0
1979-03-02 09:37:21.370 ,5,1,0.,24.0,0.,24.0
1979-03-02 09:37:45.370 ,6,1,0.,24.0,0.,24.0
1979-03-02 09:38:09.370 ,7,1,0.,24.0,0.,24.0
1979-03-02 09:38:33.370 ,7,1,0.,24.0,0.,24.0
1979-03-02 09:38:57.370 ,6,1,0.,24.0,0.,24.0
1979-03-02 09:39:21.370 ,5,1,0.,24.0,0.,24.0
1979-03-02 09:39:45.370 ,4,1,0.,24.0,0.,24.0
1979-03-02 09:40:09.370 ,3,1,0.,24.0,0.,24.0
1979-03-02 09:40:33.370 ,2,1,0.,24.0,0.,24.0
1979-03-02 09:40:57.370 ,1,1,0.,24.0,0.,24.0
1979-03-02 09:41:21.370 ,0,1,0.,24.0,0.,24.0
1979-03-02 09:41:45.370 ,0,1,0.,24.0,0.,24.0
1979-03-02 09:42:09.370 ,1,1,0.,24.0,0.,24.0
1979-03-02 09:42:33.370 ,2,1,0.,24.0,0.,24.0
1979-03-02 09:42:57.370 ,3,1,0.,24.0,0.,24.0
1979-03-02 09:43:21.370 ,4,1,0.,24.0,0.,24.0
1979-03-02 09:43:45.370 ,5,1,0.,24.0,0.,24.0
1979-03-02 09:44:09.370 ,6,1,0.,24.0,0.,24.0
1979-03-02 09:44:33.370 ,7,1,0.,24.0,0.,24.0
1979-03-02 09:44:57.370 ,7,1,0.,24.0,0.,24.0
1979-03-02 09:45:21.370 ,6,1,0.,24.0,0.,24.0
1979-03-02 09:45:45.370 ,5,1,0.,24.0,0.,24.0
1979-03-02 09:46:09.370 ,4,1,0.,24.0,0.,24.0
1979-03-02 09:46:33.370 ,3,1,0.,24.0,0.,24.0
1979-03-02 09:46:57.370 ,2,1,0.,24.0,0.,24.0
1979-03-02 09:47:21.370 ,1,1,0.,24.0,0.,24.0
1979-03-02 09:47:45.370 ,0,1,0.,24.0,0.,24.0
1979-03-02 09:48:09.370 ,0,1,0.,24.0,0.,24.0
1979-03-02 09:48:33.370 ,1,1,0.,24.0,0.,24.0
1979-03-02 09:48:57.370 ,2,1,0.,24.0,0.,24.0
1979-03-02 09:49:21.370 ,3,1,0.,24.0,0.,24.0
1979-03-02 09:49:45.370 ,4,1,0.,24.0,0.,24.0
1979-03-02 09:50:09.370 ,5,1,0.,24.0,0.,24.0
1979-03-02 09:50:33.370 ,6,1,0.,24.0,0.,24.0
1979-03-02 09:50:57.370 ,7,1,0.,24.0,0.,24.0
1979-03-02 09:51:21.370 ,7,1,0.,24.0,0.,24.0
1979-03-02 09:51:45.370 ,6,1,0.,24.0,0.,24.0
1979-03-02 09:52:09.370 ,5,1,0.,24.0,0.,24.0
1979-03-02 09:52:33.370 ,4,1,0.,24.0,0.,24.0
1979-03-02 09:52:57.370 ,3,1,0.,24.0,0.,24.0
1979-03-02 09:53:21.370 ,2,1,0.,24.0,0.,24.0
1979-03-02 09:53:45.370 ,1,1,0.,24.0,0.,24.0
1979-03-02 09:54:09.370 ,0,1,0.,24.0,0.,24.0
1979-03-02 09:54:33.370 ,0,1,0.,24.0,0.,24.0
1979-03-02 09:54:57.370 ,1,1,0.,24.0,0.,24.0
1979-03-02 09:55:21.370 ,2,1,0.,24.0,0.,24.0
1979-03-02 09:55:45.370 ,3,1,0.,24.0,0.,24.0
1979-03-02 09:56:09.370 ,4,1,0.,24.0,0.,24.0
1979-03-02 09:56:33.370 ,5,1,0.,24.0,0.,24.0
1979-03-02 09:56:57.370 ,6,1,0.,24.0,0.,24.0
1979-03-02 09:57:21.370 ,7,1,0.,24.0,0.,24.0
1979-03-02 09:57:45.370 ,7,1,0.,24.0,0.,24.0
1979-03-02 09:58:09.370 ,6,1,0.,24.0,0.,24.0
1979-03-02 09:58:33.370 ,5,1,0.,24.0,0.,24.0
1979-03-02 09:58:57.370 ,4,1,0.,24.0,0.,24.0
1979-03-02 09:59:21.370 ,3,1,0.,24.0,0.,24.0
1979-03-02 09:59:45.370 ,2,1,0.,24.0,0.,24.0
1979-03-02 10:00:09.370 ,1,1,0.,24.0,0.,24.0
1979-03-02 10:00:33.370 ,0,1,0.,24.0,0.,24.0
1979-03-02 10:00:57.370 ,0,1,0.,24.0,0.,24.0
1979-03-02 10:01:21.370 ,1,1,1.,24.0,0.,24.0
1979-03-02 10:01:45.370 ,2,1,0.,24.0,0.,24.0
1979-03-02 10:02:09.370 ,3,1,0.,24.0,0.,24.0
1979-03-02 10:02:33.370 ,4,1,0.,24.0,0.,24.0
1979-03-02 10:02:57.370 ,5,1,0.,24.0,0.,24.0
1979-03-02 10:03:21.370 ,6,1,0.,24.0,0.,24.0
1979-03-02 10:03:45.370 ,7,1,0.,24.0,0.,24.0
1979-03-02 10:04:09.370 ,7,1,0.,24.0,0.,24.0
1979-03-02 10:04:33.370 ,6,1,0.,24.0,0.,24.0
1979-03-02 10:04:57.370 ,5,1,0.,24.0,0.,24.0
1979-03-02 10:05:21.370 ,4,1,0.,24.0,0.,24.0
1979-03-02 10:05:45.370 ,3,1,0.,24.0,0.,24.0
1979-03-02 10:06:09.370 ,2,1,0.,24.0,0.,24.0
1979-03-02 10:06:33.370 ,1,1,0.,24.0,0.,24.0
1979-03-02 10:06:57.370 ,0,1,0.,24.0,0.,24.0
1979-03-02 10:07:21.370 ,0,1,0.,24.0,0.,24.0
1979-03-02 10:07:45.370 ,1,1,0.,24.0,0.,24.0
1979-03-02 10:08:09.370 ,2,1,0.,24.0,0.,24.0
1979-03-02 10:08:33.370 ,3,1,0.,24.0,0.,24.0
1979-03-02 10:08:57.370 ,4,1,0.,24.0,0.,24.0
1979-03-02 10:09:21.370 ,5,1,0.,24.0,0.,24.0
1979-03-02 10:09:45.370 ,6,1,0.,24.0,0.,24.0
1979-03-02 10:10:09.370 ,7,1,0.,24.0,0.,24.0
1979-03-02 10:10:33.370 ,7,1,0.,24.0,0.,24.0
1979-03-02 10:10:57.370 ,6,1,0.,24.0,0.,24.0
1979-03-02 10:11:21.370 ,5,1,0.,24.0,0.,24.0
1979-03-02 10:11:45.370 ,4,1,0.,24.0,0.,24.0
1979-03-02 10:12:09.370 ,3,1,0.,24.0,0.,24.0
1979-03-02 10:12:33.370 ,2,1,0.,24.0,0.,24.0
1979-03-02 10:12:57.370 ,1,1,0.,24.0,0.,24.0
1979-03-02 10:13:21.370 ,0,1,0.,24.0,0.,24.0
1979-03-02 10:13:45.370 ,0,1,0.,24.0,0.,24.0
1979-03-02 10:14:09.370 ,1,1,0.,24.0,0.,24.0
1979-03-02 10:14:33.370 ,2,1,0.,24.0,0.,24.0
1979-03-02 10:14:57.370 ,3,1,0.,24.0,0.,24.0
1979-03-02 10:15:21.370 ,4,1,0.,24.0,0.,24.0
1979-03-02 10:15:45.370 ,5,1,0.,24.0,0.,24.0
1979-03-02 10:16:09.370 ,6,1,0.,24.0,0.,24.0
1979-03-02 10:16:33.370 ,7,1,0.,24.0,0.,24.0
1979-03-02 10:16:57.370 ,7,1,0.,24.0,0.,24.0
1979-03-02 10:17:21.370 ,6,1,0.,24.0,0.,24.0
1979-03-02 10:17:45.370 ,5,1,0.,24.0,0.,24.0
1979-03-02 10:18:09.370 ,4,1,0.,24.0,0.,24.0
1979-03-02 10:18:33.370 ,3,1,0.,24.0,0.,24.0
1979-03-02 10:18:57.370 ,2,1,0.,24.0,0.,24.0
1979-03-02 10:19:21.370 ,1,1,0.,24.0,0.,24.0
1979-03-02 10:19:45.370 ,0,1,0.,24.0,0.,24.0
1979-03-02 10:20:09.370 ,0,1,0.,24.0,0.,24.0
1979-03-02 10:20:33.370 ,1,1,0.,24.0,0.,24.0
1979-03-02 10:20:57.370 ,2,1,0.,24.0,0.,24.0
1979-03-02 10:21:21.370 ,3,1,0.,24.0,0.,24.0
1979-03-02 10:21:45.370 ,4,1,0.,24.0,0.,24.0
1979-03-02 10:22:09.370 ,5,1,0.,24.0,0.,24.0
1979-03-02 10:22:33.370 ,6,1,0.,24.0,0.,24.0
1979-03-02 10:22:57.370 ,7,1,0.,24.0,0.,24.0
1979-03-02 10:23:21.370 ,7,1,0.,24.0,0.,24.0
1979-03-02 10:23:45.370 ,6,1,0.,24.0,0.,24.0
1979-03-02 10:24:09.370 ,5,1,0.,24.0,0.,24.0
1979-03-02 10:24:33.370 ,4,1,0.,24.0,0.,24.0
1979-03-02 10:24:57.370 ,3,1,0.,24.0,0.,24.0
1979-03-02 10:25:21.370 ,2,1,0.,24.0,0.,24.0
1979-03-02 10:25:45.370 ,1,1,0.,24.0,0.,24.0
1979-03-02 10:26:09.370 ,0,1,0.,24.0,0.,24.0
1979-03-02 10:26:33.370 ,0,1,0.,24.0,0.,24.0
1979-03-02 10:26:57.370 ,1,1,0.,24.0,0.,24.0
1979-03-02 10:27:21.370 ,2,1,0.,24.0,0.,24.0
1979-03-02 10:27:45.370 ,3,1,0.,24.0,0.,24.0
1979-03-02 10:28:09.370 ,4,1,0.,24.0,0.,24.0
1979-03-02 10:28:33.370 ,5,1,0.,24.0,0.,24.0
1979-03-02 10:28:57.370 ,6,1,0.,24.0,0.,24.0
1979-03-02 10:29:21.370 ,7,1,0.,24.0,0.,24.0
1979-03-02 10:29:45.370 ,7,1,0.,24.0,0.,24.0
1979-03-02 10:30:09.370 ,6,1,0.,24.0,0.,24.0
1979-03-02 10:30:33.370 ,5,1,0.,24.0,0.,24.0
1979-03-02 10:30:57.370 ,4,1,0.,24.0,0.,24.0
1979-03-02 10:31:21.370 ,3,1,0.,24.0,0.,24.0
1979-03-02 10:31:45.370 ,2,1,0.,24.0,0.,24.0
1979-03-02 10:32:09.370 ,1,1,0.,24.0,0.,24.0
1979-03-02 10:32:33.370 ,0,1,0.,24.0,0.,24.0
1979-03-02 10:32:57.370 ,0,1,0.,24.0,0.,24.0
1979-03-02 10:33:21.370 ,1,1,0.,24.0,0.,24.0
1979-03-02 10:33:45.370 ,2,1,0.,24.0,0.,24.0
1979-03-02 10:34:09.370 ,3,1,0.,24.0,0.,24.0
1979-03-02 10:34:33.370 ,4,1,0.,24.0,0.,24.0
1979-03-02 10:34:57.370 ,5,1,0.,24.0,0.,24.0
1979-03-02 10:35:21.370 ,6,1,0.,24.0,0.,24.0
1979-03-02 10:35:45.370 ,7,1,0.,24.0,0.,24.0
1979-03-02 10:36:09.370 ,7,1,0.,24.0,0.,24.0
1979-03-02 10:36:33.370 ,6,1,0.,24.0,0.,24.0
1979-03-02 10:36:57.370 ,5,1,0.,24.0,0.,24.0
1979-03-02 10:37:21.370 ,4,1,0.,24.0,0.,24.0
1979-03-02 10:37:45.370 ,3,1,0.,24.0,0.,24.0
1979-03-02 10:38:09.370 ,2,1,0.,24.0,0.,24.0
1979-03-02 10:38:33.370 ,1,1,0.,24.0,0.,24.0
1979-03-02 10:38:57.370 ,0,1,0.,24.0,0.,24.0
1979-03-02 10:39:21.370 ,0,1,0.,24.0,0.,24.0
1979-03-02 10:39:45.370 ,1,1,0.,24.0,0.,24.0
1979-03-02 10:40:09.370 ,2,1,0.,24.0,0.,24.0
1979-03-02 10:40:33.370 ,3,1,0.,24.0,0.,24.0
1979-03-02 10:40:57.370 ,4,1,0.,24.0,0.,24.0
1979-03-02 10:41:21.370 ,5,1,0.,24.0,0.,24.0
1979-03-02 10:41:45.370 ,6,1,0.,24.0,0.,24.0
1979-03-02 10:42:09.370 ,7,1,0.,24.0,0.,24.0
1979-03-02 10:42:33.370 ,7,1,0.,24.0,0.,24.0
1979-03-02 10:42:57.370 ,6,1,0.,24.0,0.,24.0
1979-03-02 10:43:21.370 ,5,1,0.,24.0,0.,24.0
1979-03-02 10:43:45.370 ,4,1,0.,24.0,0.,24.0
1979-03-02 10:44:09.370 ,3,1,0.,24.0,0.,24.0
1979-03-02 10:44:33.370 ,2,1,0.,24.0,0.,24.0
1979-03-02 10:44:57.370 ,1,1,0.,24.0,0.,24.0
1979-03-02 10:45:21.370 ,0,1,0.,24.0,0.,24.0
1979-03-02 10:45:45.370 ,0,1,0.,24.0,0.,24.0
1979-03-02 10:46:09.370 ,1,1,0.,24.0,0.,24.0
1979-03-02 10:46:33.370 ,2,1,0.,24.0,0.,24.0
1979-03-02 10:46:57.370 ,3,1,0.,24.0,0.,24.0
1979-03-02 10:47:21.370 ,4,1,0.,24.0,0.,24.0
1979-03-02 10:47:45.370 ,5,1,0.,24.0,0.,24.0
1979-03-02 10:48:09.370 ,6,1,0.,24.0,0.,24.0
1979-03-02 10:48:33.370 ,7,1,0.,24.0,0.,24.0
1979-03-02 10:48:57.370 ,7,1,0.,24.0,0.,24.0
1979-03-02 10:49:21.370 ,6,1,0.,24.0,0.,24.0
1979-03-02 10:49:45.370 ,5,1,0.,24.0,0.,24.0
1979-03-02 10:50:09.370 ,4,1,0.,24.0,0.,24.0
1979-03-02 10:50:33.370 ,3,1,0.,24.0,0.,24.0
1979-03-02 10:50:57.370 ,2,1,0.,24.0,0.,24.0
1979-03-02 10:51:21.370 ,1,1,0.,24.0,0.,24.0
1979-03-02 10:51:45.370 ,0,1,0.,24.0,0.,24.0
1979-03-02 10:52:09.370 ,0,1,0.,24.0,0.,24.0
1979-03-02 10:52:33.370 ,1,1,0.,24.0,0.,24.0
1979-03-02 10:52:57.370 ,2,1,0.,24.0,0.,24.0
1979-03-02 10:53:21.370 ,3,1,0.,24.0,0.,24.0
1979-03-02 10:53:45.370 ,0,0,0.,24.0,0.,24.0
1979-03-02 10:54:09.370 ,5,1,0.,24.0,0.,24.0
1979-03-02 10:54:33.370 ,6,1,0.,24.0,0.,24.0
1979-03-02 10:54:57.370 ,7,1,0.,24.0,0.,24.0
1979-03-02 10:55:21.370 ,7,1,0.,24.0,0.,24.0
1979-03-02 10:55:45.370 ,6,1,0.,24.0,0.,24.0
1979-03-02 10:56:09.370 ,5,1,0.,24.0,0.,24.0
1979-03-02 10:56:33.370 ,4,1,0.,24.0,0.,24.0
1979-03-02 10:56:57.370 ,3,1,0.,24.0,0.,24.0
1979-03-02 10:57:21.370 ,2,1,0.,24.0,0.,24.0
1979-03-02 10:57:45.370 ,1,1,0.,24.0,0.,24.0
1979-03-02 10:58:09.370 ,0,1,0.,24.0,0.,24.0
1979-03-02 10:58:33.370 ,0,1,0.,24.0,0.,24.0
1979-03-02 10:58:57.370 ,1,1,0.,24.0,0.,24.0
1979-03-02 10:59:21.370 ,2,1,0.,24.0,0.,24.0
1979-03-02 10:59:45.370 ,3,1,0.,24.0,0.,24.0
1979-03-02 11:00:09.370 ,4,1,0.,24.0,0.,24.0
1979-03-02 11:00:33.370 ,5,1,0.,24.0,0.,24.0
1979-03-02 11:00:57.370 ,6,1,0.,24.0,0.,24.0
1979-03-02 11:01:21.370 ,7,1,0.,24.0,0.,24.0
1979-03-02 11:01:45.370 ,7,1,0.,24.0,0.,24.0
1979-03-02 11:02:09.370 ,6,1,0.,24.0,0.,24.0
1979-03-02 11:02:33.370 ,5,1,0.,24.0,0.,24.0
1979-03-02 11:02:57.370 ,4,1,0.,24.0,0.,24.0
1979-03-02 11:03:21.370 ,3,1,0.,24.0,0.,24.0
1979-03-02 11:03:45.370 ,2,1,0.,24.0,0.,24.0
1979-03-02 11:04:09.370 ,1,1,0.,24.0,0.,24.0
1979-03-02 11:04:33.370 ,0,1,0.,24.0,0.,24.0
1979-03-02 11:04:57.370 ,0,1,0.,24.0,0.,24.0
1979-03-02 11:05:21.370 ,1,1,0.,24.0,0.,24.0
1979-03-02 11:05:45.370 ,2,1,0.,24.0,0.,24.0
1979-03-02 11:06:09.370 ,3,1,0.,24.0,0.,24.0
1979-03-02 11:06:33.370 ,4,1,0.,24.0,0.,24.0
1979-03-02 11:06:57.370 ,5,1,0.,24.0,0.,24.0
1979-03-02 11:07:21.370 ,6,1,0.,24.0,0.,24.0
1979-03-02 11:07:45.370 ,7,1,0.,24.0,0.,24.0
1979-03-02 11:08:09.370 ,0,0,,0,,0
1979-03-02 11:08:33.370 ,0,0,,0,,0
1979-03-02 11:08:33.370 ,0,0,,0,,0
1979-03-02 11:09:18.370 ,0,0,,0,,0
1979-03-02 11:09:21.370 ,0,0,,0,,0
1979-03-02 11:09:47.170 ,0,0,,0,,0
1979-03-02 11:10:09.370 ,0,0,,0,,0
1979-03-02 11:10:35.770 ,0,0,,0,,0
1979-03-02 11:10:57.370 ,0,0,,0,,0
1979-03-02 11:11:24.970 ,0,0,0.,24.0,0.,24.0
1979-03-02 11:11:45.370 ,1,1,0.,24.0,0.,24.0
1979-03-02 11:12:09.370 ,2,1,0.,24.0,0.,24.0
1979-03-02 11:12:33.370 ,3,1,0.,24.0,0.,24.0
1979-03-02 11:12:57.370 ,4,1,0.,24.0,0.,24.0
1979-03-02 11:13:21.370 ,5,1,0.,24.0,0.,24.0
1979-03-02 11:13:45.370 ,6,1,0.,24.0,0.,24.0
1979-03-02 11:14:09.370 ,7,1,0.,24.0,0.,24.0
1979-03-02 11:14:33.370 ,7,1,0.,24.0,0.,24.0
1979-03-02 11:14:57.370 ,6,1,0.,24.0,0.,24.0
1979-03-02 11:15:21.370 ,5,1,0.,24.0,0.,24.0
1979-03-02 11:15:45.370 ,4,1,0.,24.0,0.,24.0
1979-03-02 11:16:09.370 ,3,1,0.,24.0,0.,24.0
1979-03-02 11:16:33.370 ,2,1,0.,24.0,0.,24.0
1979-03-02 11:16:57.370 ,1,1,0.,24.0,0.,24.0
1979-03-02 11:17:21.370 ,0,1,0.,24.0,0.,24.0
1979-03-02 11:17:45.370 ,0,1,0.,24.0,0.,24.0
1979-03-02 11:18:09.370 ,1,1,0.,24.0,0.,24.0
1979-03-02 11:18:33.370 ,2,1,0.,24.0,0.,24.0
1979-03-02 11:18:57.370 ,3,1,0.,24.0,0.,24.0
1979-03-02 11:19:21.370 ,4,1,0.,24.0,0.,24.0
1979-03-02 11:19:45.370 ,5,1,0.,24.0,0.,24.0
1979-03-02 11:20:09.370 ,6,1,0.,24.0,0.,24.0
1979-03-02 11:20:33.370 ,7,1,0.,24.0,0.,24.0
1979-03-02 11:20:57.370 ,7,1,0.,24.0,0.,24.0
1979-03-02 11:21:21.370 ,6,1,0.,24.0,0.,24.0
1979-03-02 11:21:45.370 ,5,1,0.,24.0,0.,24.0
1979-03-02 11:22:09.370 ,4,1,0.,24.0,0.,24.0
1979-03-02 11:22:33.370 ,0,0,,0,,0
1979-03-02 11:22:57.370 ,0,0,0.,24.0,0.,24.0
1979-03-02 11:23:21.370 ,1,1,0.,24.0,0.,24.0
1979-03-02 11:23:45.370 ,0,1,0.,24.0,0.,24.0
1979-03-02 11:24:09.370 ,0,1,0.,24.0,0.,24.0
1979-03-02 11:24:33.370 ,1,1,0.,24.0,0.,24.0
1979-03-02 11:24:57.370 ,2,1,0.,24.0,0.,24.0
1979-03-02 11:25:21.370 ,3,1,0.,24.0,0.,24.0
1979-03-02 11:25:45.370 ,4,1,0.,24.0,0.,24.0
1979-03-02 11:26:09.370 ,5,1,0.,24.0,0.,24.0
1979-03-02 11:26:33.370 ,0,0,,0,,0
1979-03-02 11:26:57.370 ,0,0,0.,24.0,0.,24.0
1979-03-02 11:27:21.370 ,7,1,0.,24.0,0.,24.0
1979-03-02 11:27:45.370 ,6,1,0.,24.0,0.,24.0
1979-03-02 11:28:09.370 ,5,1,0.,24.0,0.,24.0
1979-03-02 11:28:33.370 ,4,1,0.,24.0,0.,24.0
1979-03-02 11:28:57.370 ,3,1,0.,24.0,0.,24.0
1979-03-02 11:29:21.370 ,2,1,0.,24.0,0.,24.0
1979-03-02 11:29:45.370 ,1,1,0.,24.0,0.,24.0
1979-03-02 11:30:09.370 ,0,1,0.,24.0,0.,24.0
1979-03-02 11:30:33.370 ,0,1,0.,24.0,0.,24.0
1979-03-02 11:30:57.370 ,1,1,1.,24.0,0.,24.0
1979-03-02 11:31:21.370 ,2,1,0.,24.0,0.,24.0
1979-03-02 11:31:45.370 ,3,1,0.,24.0,0.,24.0
1979-03-02 11:32:09.370 ,4,1,0.,24.0,0.,24.0
1979-03-02 11:32:33.370 ,5,1,0.,24.0,0.,24.0
1979-03-02 11:32:57.370 ,6,1,0.,24.0,0.,24.0
1979-03-02 11:33:21.370 ,7,1,0.,24.0,0.,24.0
1979-03-02 11:33:45.370 ,7,1,0.,24.0,0.,24.0
1979-03-02 11:34:09.370 ,6,1,0.,24.0,0.,24.0
1979-03-02 11:34:33.370 ,5,1,0.,24.0,0.,24.0
1979-03-02 11:34:57.370 ,4,1,0.,24.0,0.,24.0
1979-03-02 11:35:21.370 ,3,1,0.,24.0,0.,24.0
1979-03-02 11:35:45.370 ,2,1,0.,24.0,0.,24.0
1979-03-02 11:36:09.370 ,1,1,0.,24.0,0.,24.0
1979-03-02 11:36:33.370 ,0,1,0.,24.0,0.,24.0
1979-03-02 11:36:57.370 ,0,1,0.,24.0,0.,24.0
1979-03-02 11:37:21.370 ,1,1,0.,24.0,0.,24.0
1979-03-02 11:37:45.370 ,2,1,0.,24.0,0.,24.0
1979-03-02 11:38:09.370 ,3,1,0.,24.0,0.,24.0
1979-03-02 11:38:33.370 ,4,1,0.,24.0,0.,24.0
1979-03-02 11:38:57.370 ,5,1,0.,24.0,0.,24.0
1979-03-02 11:39:21.370 ,6,1,0.,24.0,0.,24.0
1979-03-02 11:39:45.370 ,7,1,0.,24.0,0.,24.0
1979-03-02 11:40:09.370 ,7,1,0.,24.0,0.,24.0
1979-03-02 11:40:33.370 ,6,1,0.,24.0,0.,24.0
1979-03-02 11:40:57.370 ,5,1,0.,24.0,0.,24.0
1979-03-02 11:41:21.370 ,4,1,0.,24.0,0.,24.0
1979-03-02 11:41:45.370 ,3,1,0.,24.0,0.,24.0
1979-03-02 11:42:09.370 ,2,1,0.,24.0,0.,24.0
1979-03-02 11:42:33.370 ,1,1,0.,24.0,0.,24.0
1979-03-02 11:42:57.370 ,0,1,0.,24.0,0.,24.0
1979-03-02 11:43:21.370 ,0,1,0.,24.0,0.,24.0
1979-03-02 11:43:45.370 ,1,1,0.,24.0,0.,24.0
1979-03-02 11:44:09.370 ,2,1,0.,24.0,0.,24.0
1979-03-02 11:44:33.370 ,3,1,0.,24.0,0.,24.0
1979-03-02 11:44:57.370 ,4,1,0.,24.0,0.,24.0
1979-03-02 11:45:21.370 ,5,1,0.,24.0,0.,24.0
1979-03-02 11:45:45.370 ,6,1,0.,24.0,0.,24.0
1979-03-02 11:46:09.370 ,7,1,0.,24.0,0.,24.0
1979-03-02 11:46:33.370 ,7,1,0.,24.0,0.,24.0
1979-03-02 11:46:57.370 ,6,1,0.,24.0,0.,24.0
1979-03-02 11:47:21.370 ,5,1,0.,24.0,0.,24.0
1979-03-02 11:47:45.370 ,4,1,0.,24.0,0.,24.0
1979-03-02 11:48:09.370 ,3,1,0.,24.0,0.,24.0
1979-03-02 11:48:33.370 ,2,1,0.,24.0,0.,24.0
1979-03-02 11:48:57.370 ,1,1,0.,24.0,0.,24.0
1979-03-02 11:49:21.370 ,0,1,0.,24.0,0.,24.0
1979-03-02 11:49:45.370 ,0,1,0.,24.0,0.,24.0
1979-03-02 11:50:09.370 ,1,1,0.,24.0,0.,24.0
1979-03-02 11:50:33.370 ,2,1,0.,24.0,0.,24.0
1979-03-02 11:50:57.370 ,3,1,0.,24.0,0.,24.0
1979-03-02 11:51:21.370 ,4,1,0.,24.0,0.,24.0
1979-03-02 11:51:45.370 ,5,1,0.,24.0,0.,24.0
1979-03-02 11:52:09.370 ,6,1,0.,24.0,0.,24.0
1979-03-02 11:52:33.370 ,7,1,0.,24.0,0.,24.0
1979-03-02 11:52:57.370 ,7,1,0.,24.0,0.,24.0
1979-03-02 11:53:21.370 ,6,1,0.,24.0,0.,24.0
1979-03-02 11:53:45.370 ,5,1,0.,24.0,0.,24.0
1979-03-02 11:54:09.370 ,4,1,0.,24.0,0.,24.0
1979-03-02 11:54:33.370 ,3,1,0.,24.0,0.,24.0
1979-03-02 11:54:57.370 ,2,1,0.,24.0,0.,24.0
1979-03-02 11:55:21.370 ,1,1,0.,24.0,0.,24.0
1979-03-02 11:55:45.370 ,0,1,0.,24.0,0.,24.0
1979-03-02 11:56:09.370 ,0,1,0.,24.0,0.,24.0
1979-03-02 11:56:33.370 ,1,1,0.,24.0,0.,24.0
1979-03-02 11:56:57.370 ,2,1,0.,24.0,0.,24.0
1979-03-02 11:57:21.370 ,3,1,0.,24.0,0.,24.0
1979-03-02 11:57:45.370 ,4,1,0.,24.0,0.,24.0
1979-03-02 11:58:09.370 ,5,1,0.,24.0,0.,24.0
1979-03-02 11:58:33.370 ,6,1,0.,24.0,0.,24.0
1979-03-02 11:58:57.370 ,7,1,0.,24.0,0.,24.0
1979-03-02 11:59:21.370 ,7,1,0.,24.0,0.,24.0
1979-03-02 11:59:45.370 ,6,1,0.,24.0,0.,24.0
1979-03-02 12:00:09.370 ,5,1,0.,24.0,0.,24.0
